TimeEST,TemperatureF,Dew PointF,Humidity,Sea Level PressureIn,VisibilityMPH,Wind Direction,Wind SpeedMPH,Gust SpeedMPH,PrecipitationIn,Events,Conditions,WindDirDegrees,DateUTC
12:15 AM,24.8,6.8,46,30.18,10.0,Calm,Calm,-,N/A,,Clear,0,2014-01-31 05:15:00
12:35 AM,26.6,8.6,47,30.16,10.0,SSE,3.5,-,N/A,,Clear,160,2014-01-31 05:35:00
12:55 AM,26.6,6.8,43,30.15,10.0,SSE,4.6,-,N/A,,Clear,160,2014-01-31 05:55:00
1:15 AM,26.6,6.8,43,30.15,10.0,South,4.6,-,N/A,,Clear,180,2014-01-31 06:15:00
1:35 AM,26.6,6.8,43,30.14,10.0,South,6.9,-,N/A,,Clear,170,2014-01-31 06:35:00
1:55 AM,26.6,6.8,43,30.13,10.0,South,5.8,-,N/A,,Clear,180,2014-01-31 06:55:00
2:15 AM,26.6,6.8,43,30.12,10.0,South,5.8,-,N/A,,Clear,180,2014-01-31 07:15:00
2:35 AM,28.4,5.0,37,30.12,10.0,South,4.6,-,N/A,,Clear,170,2014-01-31 07:35:00
2:55 AM,28.4,6.8,40,30.14,10.0,SW,5.8,-,N/A,,Clear,220,2014-01-31 07:55:00
3:15 AM,28.4,6.8,40,30.14,10.0,SSW,3.5,-,N/A,,Clear,210,2014-01-31 08:15:00
3:35 AM,28.4,6.8,40,30.13,10.0,Calm,Calm,-,N/A,,Clear,0,2014-01-31 08:35:00
3:55 AM,28.4,6.8,40,30.12,10.0,Calm,Calm,-,N/A,,Clear,0,2014-01-31 08:55:00
4:15 AM,26.6,8.6,47,30.12,10.0,Calm,Calm,-,N/A,,Clear,0,2014-01-31 09:15:00
4:35 AM,26.6,8.6,47,30.12,10.0,Calm,Calm,-,N/A,,Clear,0,2014-01-31 09:35:00
4:55 AM,26.6,12.2,55,30.12,10.0,Calm,Calm,-,N/A,,Clear,0,2014-01-31 09:55:00
5:15 AM,26.6,12.2,55,30.12,10.0,Calm,Calm,-,N/A,,Clear,0,2014-01-31 10:15:00
5:35 AM,26.6,12.2,55,30.12,10.0,Calm,Calm,-,N/A,,Clear,0,2014-01-31 10:35:00
5:55 AM,26.6,14.0,59,30.11,10.0,Calm,Calm,-,N/A,,Clear,0,2014-01-31 10:55:00
6:15 AM,26.6,12.2,55,30.12,10.0,Calm,Calm,-,N/A,,Clear,0,2014-01-31 11:15:00
6:35 AM,26.6,10.4,51,30.13,10.0,Calm,Calm,-,N/A,,Clear,0,2014-01-31 11:35:00
6:55 AM,26.6,12.2,55,30.13,10.0,Calm,Calm,-,N/A,,Clear,0,2014-01-31 11:55:00
7:15 AM,26.6,12.2,55,30.13,10.0,Calm,Calm,-,N/A,,Clear,0,2014-01-31 12:15:00
7:35 AM,26.6,12.2,55,30.14,10.0,Calm,Calm,-,N/A,,Clear,0,2014-01-31 12:35:00
7:55 AM,26.6,12.2,55,30.15,10.0,Calm,Calm,-,N/A,,Clear,0,2014-01-31 12:55:00
8:15 AM,28.4,12.2,51,30.15,10.0,Calm,Calm,-,N/A,,Clear,0,2014-01-31 13:15:00
8:35 AM,28.4,8.6,43,30.15,10.0,Calm,Calm,-,N/A,,Clear,0,2014-01-31 13:35:00
8:55 AM,30.2,8.6,40,30.16,10.0,Calm,Calm,-,N/A,,Clear,0,2014-01-31 13:55:00
9:15 AM,30.2,8.6,40,30.15,10.0,Calm,Calm,-,N/A,,Clear,0,2014-01-31 14:15:00
9:35 AM,30.2,8.6,40,30.16,10.0,Calm,Calm,-,N/A,,Clear,0,2014-01-31 14:35:00
9:55 AM,32.0,6.8,35,30.16,10.0,Calm,Calm,-,N/A,,Clear,0,2014-01-31 14:55:00
10:15 AM,33.8,8.6,35,30.17,10.0,Calm,Calm,-,N/A,,Clear,0,2014-01-31 15:15:00
10:35 AM,35.6,8.6,33,30.18,10.0,NNE,3.5,-,N/A,,Clear,30,2014-01-31 15:35:00
10:55 AM,37.4,6.8,28,30.17,10.0,Calm,Calm,-,N/A,,Clear,0,2014-01-31 15:55:00
11:15 AM,39.2,6.8,26,30.16,10.0,Calm,Calm,-,N/A,,Clear,0,2014-01-31 16:15:00
11:35 AM,42.8,6.8,23,30.17,10.0,Calm,Calm,-,N/A,,Clear,0,2014-01-31 16:35:00
11:55 AM,44.6,6.8,21,30.16,10.0,Calm,Calm,-,N/A,,Clear,0,2014-01-31 16:55:00
12:15 PM,46.4,5.0,18,30.15,10.0,Calm,Calm,-,N/A,,Clear,0,2014-01-31 17:15:00
12:35 PM,48.2,6.8,19,30.14,10.0,Calm,Calm,-,N/A,,Clear,0,2014-01-31 17:35:00
12:55 PM,50.0,3.2,15,30.13,10.0,Calm,Calm,-,N/A,,Clear,0,2014-01-31 17:55:00
1:15 PM,50.0,3.2,15,30.13,10.0,Calm,Calm,-,N/A,,Clear,0,2014-01-31 18:15:00
1:35 PM,51.8,3.2,14,30.13,10.0,Calm,Calm,-,N/A,,Clear,0,2014-01-31 18:35:00
1:55 PM,51.8,-0.4,12,30.12,10.0,ESE,3.5,-,N/A,,Clear,120,2014-01-31 18:55:00
2:15 PM,51.8,1.4,13,30.11,10.0,East,3.5,-,N/A,,Clear,90,2014-01-31 19:15:00
2:35 PM,51.8,-0.4,12,30.11,10.0,East,3.5,-,N/A,,Clear,80,2014-01-31 19:35:00
2:55 PM,51.8,-2.2,11,30.11,10.0,ENE,4.6,-,N/A,,Clear,60,2014-01-31 19:55:00
3:15 PM,51.8,-5.8,9,30.12,10.0,Calm,Calm,-,N/A,,Clear,0,2014-01-31 20:15:00
3:35 PM,53.6,-5.8,9,30.12,10.0,Calm,Calm,-,N/A,,Clear,0,2014-01-31 20:35:00
3:55 PM,53.6,-5.8,9,30.12,10.0,Calm,Calm,-,N/A,,Clear,0,2014-01-31 20:55:00
4:15 PM,53.6,-4.0,9,30.12,10.0,East,5.8,-,N/A,,Clear,100,2014-01-31 21:15:00
4:35 PM,51.8,-2.2,11,30.13,10.0,East,3.5,-,N/A,,Clear,100,2014-01-31 21:35:00
4:55 PM,50.0,1.4,14,30.14,10.0,East,4.6,-,N/A,,Clear,100,2014-01-31 21:55:00
5:15 PM,46.4,3.2,17,30.15,10.0,Calm,Calm,-,N/A,,Clear,0,2014-01-31 22:15:00
5:35 PM,44.6,3.2,18,30.15,10.0,East,3.5,-,N/A,,Clear,80,2014-01-31 22:35:00
5:55 PM,42.8,5.0,21,30.16,10.0,Calm,Calm,-,N/A,,Clear,0,2014-01-31 22:55:00
6:15 PM,41.0,6.8,24,30.17,10.0,Calm,Calm,-,N/A,,Clear,0,2014-01-31 23:15:00
6:35 PM,37.4,6.8,28,30.19,10.0,Calm,Calm,-,N/A,,Clear,0,2014-01-31 23:35:00
6:55 PM,39.2,6.8,26,30.20,10.0,Calm,Calm,-,N/A,,Clear,0,2014-01-31 23:55:00
7:15 PM,35.6,8.6,33,30.20,10.0,Calm,Calm,-,N/A,,Clear,0,2014-02-01 00:15:00
7:35 PM,33.8,15.8,48,30.21,10.0,Calm,Calm,-,N/A,,Clear,0,2014-02-01 00:35:00
7:55 PM,30.2,17.6,60,30.21,10.0,Calm,Calm,-,N/A,,Clear,0,2014-02-01 00:55:00
8:15 PM,30.2,14.0,51,30.21,10.0,Calm,Calm,-,N/A,,Clear,0,2014-02-01 01:15:00
8:35 PM,30.2,14.0,51,30.21,10.0,Calm,Calm,-,N/A,,Clear,0,2014-02-01 01:35:00
8:55 PM,30.2,15.8,55,30.21,10.0,Calm,Calm,-,N/A,,Clear,0,2014-02-01 01:55:00
9:15 PM,30.2,14.0,51,30.23,10.0,Calm,Calm,-,N/A,,Clear,0,2014-02-01 02:15:00
9:35 PM,30.2,14.0,51,30.23,10.0,Calm,Calm,-,N/A,,Clear,0,2014-02-01 02:35:00
9:55 PM,30.2,15.8,55,30.23,10.0,Calm,Calm,-,N/A,,Clear,0,2014-02-01 02:55:00
10:15 PM,30.2,15.8,55,30.24,10.0,Calm,Calm,-,N/A,,Clear,0,2014-02-01 03:15:00
10:35 PM,30.2,15.8,55,30.24,10.0,North,3.5,-,N/A,,Clear,10,2014-02-01 03:35:00
10:55 PM,28.4,15.8,59,30.23,10.0,Calm,Calm,-,N/A,,Clear,0,2014-02-01 03:55:00
11:15 PM,30.2,15.8,55,30.23,10.0,Calm,Calm,-,N/A,,Clear,0,2014-02-01 04:15:00
11:35 PM,28.4,17.6,64,30.23,10.0,Calm,Calm,-,N/A,,Clear,0,2014-02-01 04:35:00
11:55 PM,28.4,17.6,64,30.23,10.0,Calm,Calm,-,N/A,,Clear,0,2014-02-01 04:55:00